Regional Weather Roundup
Issued by NWS

Home | Current Version | Previous Version | Text Only | Print | Product List | Glossary On
Versions: 1 2 3 4 5 6 7 8 9 10 11 12 13 14 15 16 17 18 19 20 21 22 23 24 25 26 27 28 29 30 31 32 33 34 35 36 37 38 39 40 41 42 43 44 45 46 47 48 49 50
000
ASUS43 KTOP 251559
RWRKS

WEATHER ROUNDUP FOR KANSAS
NATIONAL WEATHER SERVICE GOODLAND KS
1100 AM CDT THU AUG 25 2016

NOTE:  "FAIR" INDICATES FEW OR NO CLOUDS BELOW 12,000 FEET WITH NO
SIGNIFICANT WEATHER AND/OR OBSTRUCTIONS TO VISIBILITY.

KSZ001>006-013>018-027>032-041>047-251700-
NORTHWEST KANSAS

CITY           SKY/WX    TMP DP  RH WIND       PRES   REMARKS
GOODLAND       SUNNY     65  50  58 CALM      30.25S
HAYS           CLOUDY    66  52  59 NE8       30.19S
HILL CITY      MOSUNNY   65  58  78 NE6       30.22R
RUSSELL        MOSUNNY   70  57  63 NE10      30.18R
$$

KSZ061>065-074>080-084>089-251700-
SOUTHWEST KANSAS

CITY           SKY/WX    TMP DP  RH WIND       PRES   REMARKS
DODGE CITY     CLOUDY    64  61  90 N12       30.19R
ELKHART          N/A     64  56  75 N7          N/A
GARDEN CITY    CLOUDY    62  59  90 NE9       30.20S
GREAT BEND     CLOUDY    63  54  72 N14       30.18R
LIBERAL        CLOUDY    64  59  82 N10       30.21R
$$

KSZ066>073-081>083-090>101-251700-
SOUTHEAST KANSAS

CITY           SKY/WX    TMP DP  RH WIND       PRES   REMARKS
CHANUTE        MOSUNNY   81  72  74 W10       30.08R
COFFEYVILLE    SUNNY     86  70  58 W8        30.08R
HUTCHINSON     PTSUNNY   75  66  73 N8        30.12R
MEDICINE LODGE   N/A     72  64  76 NW3       30.13F
NEWTON         SUNNY     73  66  78 NE7       30.12R
PARSONS        MOSUNNY   85  71  63 S9        30.08R
WICHITA INTL   CLOUDY    75  67  76 N6        30.10S
WICHITA JABRA  CLOUDY    75  67  76 NE6       30.10F
WINFIELD       MOSUNNY   80  72  76 NW9       30.10R
$$

KSZ007>012-019>026-033>040-048>060-102>105-251700-
NORTHEAST KANSAS

CITY           SKY/WX    TMP DP  RH WIND       PRES   REMARKS
CONCORDIA      PTSUNNY   67  58  72 NE7       30.16R
EMPORIA        CLOUDY    73  68  84 VRB5      30.10R
LAWRENCE       CLOUDY    76  32  20 MISG      30.08S
MANHATTAN      MOSUNNY   73  66  78 NE10      30.10R
OLATHE IND     CLOUDY    76  70  82 CALM      30.10R
OLATHE EXE     CLOUDY    75  71  87 VRB3      30.10S
SALINA         CLOUDY    70  63  78 NW12      30.15R
TOPEKA BILLARD LGT RAIN  72  68  87 NE7       30.08S
TOPEKA FORBES  LGT RAIN  75  69  81 CALM      30.08S
$$



USA.gov is the U.S. government's official web portal to all federal, state and local government web resources and services.